Weather History for EGKK - October, 2012

Change the Weather History Date:

Friday, October 5, 2012

  Actual Average Record
Temperature  
Mean Temperature 55 °F -  
Max Temperature 60 °F 58 °F 66 °F (2001)
Min Temperature 50 °F 43 °F 35 °F (1999)
Degree Days  
Heating Degree Days 10    
Growing Degree Days 5 (Base 50)    
Moisture  
Dew Point 51 °F    
Average Humidity 87    
Maximum Humidity 94    
Minimum Humidity 68    
Precipitation  
Precipitation 0.00 in 0.10 in - ()
Sea Level Pressure  
Sea Level Pressure 29.74 in    
Wind  
Wind Speed 9 mph ()    
Max Wind Speed 26 mph    
Max Gust Speed 38 mph    
Visibility 4.7 miles    
Events Rain    
Averages and records for this station are not official NWS values.
T = Trace of Precipitation, MM = Missing Value Source: Averaged Metar Reports

Daily Weather History Graph

Daily Weather History Graph

Search for Another Location

Airport or City:

Trip Planner

Search our weather history database for the weather conditions in past years. The results will help you decide how hot, cold, wet, or windy it might be!

Date:

Astronomy

Oct. 05, 2012 Rise Set
Actual Time 7:08 AM BST 6:28 PM BST
Civil Twilight 6:35 AM BST 7:01 PM BST
Nautical Twilight 5:56 AM BST 7:40 PM BST
Astronomical Twilight 5:17 AM BST 8:19 PM BST
Moon 9:07 PM BST (10/5) 12:35 PM BST (10/5)
Length of Visible Light 12h 26m
Length of Day
11h 20m
Waning Gibbous, 76% of the Moon is Illuminated
Oct 5
Waning Gibbous
Oct 8
Last Quarter
Oct 15
New
Oct 22
First Quarter
Oct 29
Full

Hourly Weather History & Observations

Time (BST) Temp. Dew Point Humidity Pressure Visibility Wind Dir Wind Speed Gust Speed Precip Events Conditions
12:20 AM 51.8 °F 48.2 °F 88% 29.77 in 6.2 mi Variable 3.5 mph - N/A Rain Light Rain
12:50 AM 51.8 °F 50.0 °F 94% 29.74 in 6.2 mi Variable 3.5 mph - N/A Rain Light Rain
1:20 AM 53.6 °F 50.0 °F 88% 29.71 in 5.6 mi SSE 4.6 mph - N/A Rain Light Rain
1:50 AM 53.6 °F 51.8 °F 94% 29.68 in 6.2 mi SSE 5.8 mph - N/A Rain Light Rain
2:20 AM 53.6 °F 51.8 °F 94% 29.65 in 3.1 mi SSE 6.9 mph - N/A Rain Rain
2:50 AM 57.2 °F 55.4 °F 94% 29.62 in 3.1 mi SSW 13.8 mph 26.5 mph N/A Rain Rain
3:20 AM 57.2 °F 55.4 °F 94% 29.59 in 3.7 mi SSW 13.8 mph - N/A Rain Rain
3:50 AM 59.0 °F 55.4 °F 88% 29.56 in 3.7 mi SSW 18.4 mph 32.2 mph N/A Rain Light Rain
4:20 AM 59.0 °F 57.2 °F 94% 29.56 in 3.1 mi SW 18.4 mph 33.4 mph N/A Rain Rain
4:50 AM 59.0 °F 57.2 °F 94% 29.56 in 3.1 mi SW 20.7 mph - N/A Rain Rain
5:20 AM 60.8 °F 57.2 °F 88% 29.56 in 3.1 mi SW 19.6 mph 31.1 mph N/A Rain Rain
5:50 AM 60.8 °F 59.0 °F 94% 29.56 in 5.0 mi SW 19.6 mph 31.1 mph N/A Rain Light Rain
6:20 AM 60.8 °F 59.0 °F 94% 29.56 in 3.1 mi SW 20.7 mph - N/A Rain Rain
6:50 AM 59.0 °F 55.4 °F 88% 29.62 in 3.1 mi West 26.5 mph 38.0 mph N/A Rain Rain
7:20 AM 55.4 °F 51.8 °F 88% 29.65 in 6.2 mi WNW 18.4 mph - N/A Rain Light Rain
7:50 AM 53.6 °F 50.0 °F 88% 29.65 in 6.2 mi West 8.1 mph - N/A   Partly Cloudy
8:20 AM 53.6 °F 50.0 °F 88% 29.68 in 6.2 mi West 8.1 mph - N/A   Partly Cloudy
8:50 AM 53.6 °F 51.8 °F 94% 29.68 in 6.2 mi SW 6.9 mph - N/A   Partly Cloudy
9:20 AM 53.6 °F 51.8 °F 94% 29.71 in 6.2 mi WSW 5.8 mph - N/A   Mostly Cloudy
9:50 AM 55.4 °F 51.8 °F 88% 29.74 in 6.2 mi WSW 6.9 mph - N/A   Partly Cloudy
10:20 AM 55.4 °F 51.8 °F 88% 29.74 in 6.2 mi WSW 10.4 mph - N/A   Partly Cloudy
10:50 AM 57.2 °F 51.8 °F 82% 29.77 in 6.2 mi West 13.8 mph - N/A   Partly Cloudy
11:20 AM 57.2 °F 50.0 °F 77% 29.77 in 6.2 mi West 12.7 mph - N/A   Mostly Cloudy
11:50 AM 59.0 °F 50.0 °F 72% 29.77 in 6.2 mi WSW 13.8 mph - N/A   Mostly Cloudy
12:20 PM 60.8 °F 50.0 °F 68% 29.80 in 6.2 mi WSW 12.7 mph - N/A   Mostly Cloudy
12:50 PM 59.0 °F 50.0 °F 72% 29.80 in 6.2 mi West 12.7 mph - N/A   Mostly Cloudy
1:20 PM 60.8 °F 50.0 °F 68% 29.80 in 6.2 mi West 13.8 mph - N/A   Mostly Cloudy
1:50 PM 60.8 °F 50.0 °F 68% 29.83 in 6.2 mi WSW 11.5 mph - N/A   Mostly Cloudy
2:20 PM 59.0 °F 50.0 °F 72% 29.80 in 6.2 mi West 12.7 mph - N/A   Scattered Clouds
2:50 PM 59.0 °F 50.0 °F 72% 29.83 in 6.2 mi WSW 8.1 mph - N/A   Scattered Clouds
3:20 PM 57.2 °F 50.0 °F 77% 29.83 in 6.2 mi West 6.9 mph - N/A   Scattered Clouds
3:50 PM 57.2 °F 50.0 °F 77% 29.83 in 6.2 mi West 6.9 mph - N/A   Partly Cloudy
4:20 PM 57.2 °F 50.0 °F 77% 29.83 in 6.2 mi West 8.1 mph - N/A   Mostly Cloudy
4:50 PM 55.4 °F 50.0 °F 82% 29.83 in 3.7 mi WNW 9.2 mph - N/A Rain Light Rain
5:20 PM 53.6 °F 50.0 °F 88% 29.83 in 3.7 mi West 5.8 mph - N/A Rain Light Rain
5:50 PM 53.6 °F 50.0 °F 88% 29.83 in 3.7 mi SW 3.5 mph - N/A Rain Light Rain
6:20 PM 53.6 °F 50.0 °F 88% 29.83 in 3.1 mi WSW 4.6 mph - N/A Rain Light Rain
6:50 PM 51.8 °F 50.0 °F 94% 29.83 in 3.1 mi West 4.6 mph - N/A Rain Light Rain
7:20 PM 51.8 °F 50.0 °F 94% 29.83 in 4.3 mi NW 4.6 mph - N/A Rain Light Drizzle
7:50 PM 51.8 °F 50.0 °F 94% 29.83 in 2.8 mi Variable 3.5 mph - N/A Rain Rain
8:20 PM 51.8 °F 50.0 °F 94% 29.83 in 3.7 mi Variable 3.5 mph - N/A Rain Light Rain
8:50 PM 51.8 °F 50.0 °F 94% 29.83 in 3.1 mi Variable 2.3 mph - N/A   Drizzle
9:20 PM 51.8 °F 50.0 °F 94% 29.83 in 2.2 mi Variable 2.3 mph - N/A   Drizzle
9:50 PM 51.8 °F 50.0 °F 94% 29.83 in 3.1 mi Variable 3.5 mph - N/A   Drizzle
10:20 PM 51.8 °F 50.0 °F 94% 29.83 in 1.5 mi North 4.6 mph - N/A Rain Rain
10:50 PM 50.0 °F 48.2 °F 94% 29.80 in 2.2 mi NNE 6.9 mph - N/A Rain Rain
11:20 PM 50.0 °F 48.2 °F 94% 29.80 in - NNE 5.8 mph - N/A   Drizzle
11:50 PM 50.0 °F 48.2 °F 94% 29.80 in 2.8 mi NE 6.9 mph - N/A Rain Light Rain